Weather History for Hurlburt Field, FL

Change the Weather History Date:

Monday, September 9, 2013

  Actual Average Record
Temperature  
Mean Temperature 80 °F -  
Max Temperature 91 °F 85 °F 91 °F (2005)
Min Temperature 70 °F 70 °F 59 °F (2011)
Cooling Degree Days 15    
Growing Degree Days 30 (Base 50)    
Moisture  
Dew Point 68 °F    
Average Humidity 66    
Maximum Humidity 88    
Minimum Humidity 41    
Precipitation  
Precipitation 0.00 in - - ()
Sea Level Pressure  
Sea Level Pressure 30.02 in    
Wind  
Wind Speed 5 mph (NNE)    
Max Wind Speed 12 mph    
Max Gust Speed -    
Visibility 10 miles    
Events Rain    
Averages and records for this station are not official NWS values.
T = Trace of Precipitation, MM = Missing Value Source: NWS Daily Summary

Daily Weather History Graph

Daily Weather History Graph

Search for Another Location

Airport:

Trip Planner

Search our weather history database for the weather conditions in past years. The results will help you decide how hot, cold, wet, or windy it might be!

Date:

Astronomy

Sep. 09, 2013 Rise Set
Actual Time 6:28 AM CDT 6:59 PM CDT
Civil Twilight 6:03 AM CDT 7:23 PM CDT
Nautical Twilight 5:35 AM CDT 7:51 PM CDT
Astronomical Twilight 5:06 AM CDT 8:20 PM CDT
Moon 10:27 AM CDT (9/9) 9:38 PM CDT (9/9)
Length of Visible Light 13h 19m
Length of Day
12h 31m
Waxing Crescent, 19% of the Moon is Illuminated
Sep 9
Waxing Crescent
Sep 12
First Quarter
Sep 19
Full
Sep 26
Last Quarter
Oct 4
New

Hourly Weather History & Observations

Time (CDT) Temp. Heat Index Dew Point Humidity Pressure Visibility Wind Dir Wind Speed Gust Speed Precip Events Conditions
12:58 AM 72.7 °F - 68.0 °F 85% 29.98 in 10.0 mi NNW 2.3 mph - N/A   Clear
1:58 AM 72.9 °F - 68.2 °F 85% 29.97 in 10.0 mi NNE 1.2 mph - N/A   Clear
2:58 AM 71.4 °F - 67.5 °F 87% 29.97 in 10.0 mi North 4.6 mph - N/A   Clear
3:58 AM 70.9 °F - 67.1 °F 88% 29.98 in 10.0 mi North 5.8 mph - N/A   Clear
4:58 AM 70.5 °F - 66.9 °F 88% 29.99 in 10.0 mi North 5.8 mph - N/A   Clear
5:58 AM 70.3 °F - 66.7 °F 88% 30.01 in 10.0 mi North 5.8 mph - N/A   Clear
6:58 AM 71.6 °F - 68.0 °F 88% 30.02 in 10.0 mi North 5.8 mph - N/A   Clear
7:58 AM 76.5 °F - 70.7 °F 82% 30.03 in 10.0 mi North 5.8 mph - N/A   Clear
8:58 AM 81.0 °F 85.2 °F 72.0 °F 74% 30.04 in 10.0 mi NNE 8.1 mph - N/A   Clear
9:58 AM 85.3 °F 90.8 °F 71.6 °F 63% 30.05 in 10.0 mi NNE 4.6 mph - N/A   Clear
10:58 AM 88.3 °F 92.0 °F 68.0 °F 51% 30.05 in 10.0 mi NE 5.8 mph - N/A   Partly Cloudy
11:22 AM 89.6 °F 92.2 °F 66.2 °F 46% 30.04 in 10.0 mi East 4.6 mph - N/A Rain Light Rain
11:32 AM 89.6 °F 91.1 °F 64.4 °F 43% 30.04 in 10.0 mi East 8.1 mph - N/A   Clear
11:58 AM 90.5 °F 91.8 °F 64.0 °F 41% 30.04 in 10.0 mi SE 10.4 mph - 0.00 in   Clear
12:58 PM 90.7 °F 92.8 °F 65.3 °F 43% 30.04 in 10.0 mi SSE 10.4 mph - N/A   Clear
1:58 PM 90.1 °F 92.7 °F 66.0 °F 45% 30.03 in 10.0 mi South 11.5 mph - N/A   Clear
2:58 PM 89.8 °F 92.5 °F 66.7 °F 46% 30.02 in 10.0 mi South 11.5 mph - N/A   Clear
3:58 PM 89.6 °F 92.2 °F 66.6 °F 46% 30.00 in 10.0 mi SSW 9.2 mph - N/A   Clear
4:58 PM 87.8 °F 90.4 °F 66.6 °F 49% 30.00 in 10.0 mi SSW 5.8 mph - N/A   Scattered Clouds
5:58 PM 86.7 °F 89.6 °F 67.3 °F 52% 30.00 in 10.0 mi SW 4.6 mph - N/A   Clear
6:58 PM 84.9 °F 87.9 °F 67.5 °F 56% 30.00 in 10.0 mi SW 5.8 mph - N/A   Partly Cloudy
7:58 PM 84.4 °F 87.3 °F 67.6 °F 57% 30.02 in 10.0 mi SW 3.5 mph - N/A   Mostly Cloudy
8:58 PM 83.8 °F 87.5 °F 68.9 °F 61% 30.03 in 10.0 mi Calm Calm - N/A   Mostly Cloudy
9:58 PM 83.1 °F 86.6 °F 69.1 °F 62% 30.05 in 10.0 mi Calm Calm - N/A   Clear
10:58 PM 79.2 °F - 70.7 °F 75% 30.05 in 10.0 mi North 1.2 mph - N/A   Mostly Cloudy
11:45 PM 78.8 °F - 69.8 °F 74% 30.05 in 10.0 mi NNE 9.2 mph - N/A Rain Light Rain
11:58 PM 77.2 °F - 71.1 °F 81% 30.05 in 10.0 mi North 6.9 mph - 0.00 in Rain Light Rain
11:59 PM 77.0 °F - 71.6 °F 83% 30.04 in 10.0 mi NNE 5.8 mph - N/A   Mostly Cloudy